Location: Newark
(51.3318°N, 0.0053°E)
Time: 08:03:50
(UTC+00:00)

VELOX 1 - Visible Passes

Search period start: 27 June 2022 00:00
Search period end: 07 July 2022 00:00
Orbit: 625 x 638 km, 98.4° (Epoch: 24 June)

Date Brightness Start Highest point End Pass type
(mag) Time Alt. Az. Time Alt. Az. Time Alt. Az.
30 Jun ? 02:32:12 10° ENE 02:33:53 12° NE 02:35:36 10° NNE visible
01 Jul ? 02:51:39 10° E 02:54:31 17° ENE 02:57:23 10° NNE visible
05 Jul ? 02:39:45 10° E 02:41:57 14° NE 02:44:08 10° NNE visible
06 Jul ? 02:59:26 10° ESE 03:02:34 19° ENE 03:05:43 10° NNE visible
